Regional Weather Roundup
Issued by NWS Wakefield, VA

Home | Current Version | Previous Version | Text Only | Print | Product List | Glossary On
Versions: 1 2 3 4 5 6 7 8 9 10 11 12 13 14 15 16 17 18 19 20 21 22 23 24 25 26 27 28 29 30 31 32 33 34 35 36 37 38 39 40 41 42 43 44 45 46 47 48 49 50
000
ASUS41 KAKQ 220210
RWRAKQ

REGIONAL WEATHER ROUNDUP
NATIONAL WEATHER SERVICE WAKEFIELD VA
1000 PM EDT TUE OCT 21 2014

Note: "fair" indicates few or no clouds below 12,000 feet with no
significant weather and/or obstructions to visibility. * = Denotes
station may not report precipitation (e.g., rain,snow,etc.),
thunder or fog.

VAZ042-051-052>054-056-220300-
NORTHERN VIRGINIA

CITY           SKY/WX    TMP DP  RH WIND       PRES   REMARKS
WASH NATIONAL  LGT RAIN  57  51  80 W7        29.93R
DULLES         RAIN      52  51  97 NW5       29.93R
FORT BELVOIR   NOT AVBL
QUANTICO       LGT RAIN  56  52  86 NE10      29.92R
FREDERICKSBRG* CLOUDY    55  55 100 NW5       29.90R
STAFFORD*      CLOUDY    53  53 100 N6        29.95R
WARRENTON      CLOUDY    53  53 100 CALM      29.92R
CULPEPER*      CLOUDY    54  52  94 N3        29.93R
MANASSAS*      LGT RAIN  54  54 100 N7        29.92R
LEESBURG*      LGT RAIN  52  52 100 CALM      29.94R
WINCHESTER     MOCLDY    50  45  81 CALM      29.94R
FRONT ROYAL*   CLOUDY    50  48  93 CALM      29.93R
LURAY*         CLOUDY    54  46  76 CALM      29.94R
$$

VAZ048-049-060>072-079>083-220300-
CENTRAL AND SOUTH CENTRAL VIRGINIA...AND NORTH CENTRAL NORTH CAROLINA

CITY           SKY/WX    TMP DP  RH WIND       PRES   REMARKS
RICHMOND       CLOUDY    57  50  77 N7        29.90R
CHESTERFIELD*  CLOUDY   N/A N/A N/A NW6       29.92R
PETERSBURG*    CLOUDY    59  46  60 NW7       29.92R
HANOVER        CLOUDY    55  51  86 NW3       29.92R
TAPPAHANNOCK*  CLOUDY    56  48  72 NW5       29.89S
CHARLOTTSVILLE LGT RAIN  55  46  71 NW7       29.93R
ORANGE*        CLOUDY    54  52  94 CALM      29.94R
LOUISA*        MOCLDY    54  52  94 CALM      29.91R
FARMVILLE*     CLOUDY    57  45  62 CALM      29.91R
CREWE*         CLOUDY    58  46  64 NW5       29.92R
FORT PICKETT*  CLOUDY    57  47  69 N3        29.92R
LUNENBURG*     CLOUDY    58  46  65 CALM      29.92R
SOUTH HILL*    CLOUDY    61  48  63 W3        29.96R
LAWRENCEVILLE* CLOUDY    57  47  70 W3        29.90S
ROANOKE RAPIDS CLOUDY    59  48  67 NW6       29.90R
RALEIGH        MOCLDY    61  40  45 VRB5      29.94R
$$

VAZ088>098-220300-
SOUTHEAST VIRGINIA

CITY           SKY/WX    TMP DP  RH WIND       PRES   REMARKS
NORFOLK        CLOUDY    65  52  62 W5        29.84S
VIRGINIA BEACH CLOUDY    64  55  72 SW5       29.84S
NORFOLK NAVAL  CLOUDY    68  51  54 W7        29.86R
WEST POINT*    CLOUDY    59  52  78 N6        29.89R
NEWPORT NEWS   CLOUDY    67  52  58 NW13      29.86R
LANGLEY AFB    CLOUDY    63  53  70 W8        29.85R
FORT EUSTIS    CLOUDY    62  51  65 NW8       29.85R
WILLIAMSBURG*  CLOUDY    63  54  72 N7        29.88R
HR EXEC AP*    CLOUDY    55  54  94 W5        29.87S
FRANKLIN*      CLOUDY    61  52  72 W9        29.89R
WAKEFIELD      CLOUDY    62  50  64 N7        29.89R
$$

VAZ020-022-025-037-045-220300-
WEST CENTRAL AND SOUTHWEST VIRGINIA

CITY           SKY/WX    TMP DP  RH WIND       PRES   REMARKS
STAUNTON*      LGT RAIN  53  47  80 CALM      29.97R
HOT SPRINGS VA CLOUDY    40  38  93 NW10      29.94R
LYNCHBURG      CLOUDY    52  41  66 W5        29.95R
DANVILLE       MOCLDY    56  41  57 W8        29.96R
SOUTH BOSTON*  NOT AVBL
MARTINSVILLE   PTCLDY    52  40  64 NW10      30.01R
ROANOKE        CLOUDY    52  39  61 NW9       30.00R
BLACKSBURG     CLOUDY    46  43  87 NW9G18    30.02R
DUBLIN*        LGT RAIN  48  42  79 NW14      30.03R
MARION*        CLOUDY    46  38  72 W8G21     30.07R
HILLSVILLE*    CLOUDY    45  37  74 NW13      30.01R
RICHLANDS*     CLOUDY    47  41  78 NW5       30.07R
WISE*          CLOUDY    45  36  70 NW5       30.09R
ABINGDON*      CLOUDY    49  39  69 CALM      30.08R
$$

MDZ021>025-VAZ099-100-220300-
SOUTHERN MARYLAND AND THE DELMARVA PENINSULA

CITY           SKY/WX    TMP DP  RH WIND       PRES   REMARKS
PATUXENT RIVER CLOUDY    57  53  86 W12       29.89R
BAY BRIDGE APT RAIN      55  54  94 N10G16    29.89S
LEONARDTOWN    CLOUDY    54  52  94 W5        29.91R
DOVER          CLOUDY    55  51  87 NW3       29.84R
GEORGETOWN     CLOUDY    57  52  83 NE6       29.85S
EASTON         NOT AVBL
CAMBRIDGE      CLOUDY    59  54  82 CALM      29.87R
SALISBURY      LGT RAIN  60  53  77 W8        29.87R
OCEAN CITY     CLOUDY    55  54  96 CALM      29.84S
WALLOPS ISLAND LGT RAIN  60  53  77 N13G20    29.84S
ACCOMACK*      CLOUDY    61  54  77 NW3       29.84R
$$

NCZ012>017-030>032-220300-
EASTERN NORTH CAROLINA

CITY           SKY/WX    TMP DP  RH WIND       PRES   REMARKS
ELIZABETH CITY CLOUDY    60  54  80 SW3       29.85S
AHOSKIE*       CLOUDY    58  50  74 NW5       29.89R
EDENTON*       CLOUDY    61  56  86 CALM      29.85F
CURRITUCK*     CLOUDY    61  54  78 W5        29.86S
KILL DEVIL HLS MOCLDY    66  60  82 CALM      29.84S
MANTEO         CLOUDY    66  61  84 CALM      29.85F
CAPE HATTERAS  CLEAR     66  60  81 W7        29.85F
TARBORO*       CLOUDY    64  51  64 NW5       29.91R
GOLDSBORO      MOCLDY    65  60  82 NW12      29.88R
WASHINGTON     CLOUDY    59  55  87 CALM      29.86F
GREENVILLE     LGT RAIN  63  61  94 NW12G20   29.90R
NEW BERN       PTCLDY    64  58  80 CALM      29.87S
WILMINGTON     CLEAR     63  58  83 SW3       29.88S
$$

VAZ048-220300-
ELSEWHERE

CITY           SKY/WX    TMP DP  RH WIND       PRES   REMARKS
HARRISBURG PA  CLOUDY    54  48  80 NW10      29.91R
BALTIMORE      LGT RAIN  54  51  90 NW3       29.89R
ANNAPOLIS      LGT RAIN  57  53  86 N12       29.88S
ANDREWS AFB    LGT RAIN  55  53  92 W9        29.90R
WILMINGTON DE  CLOUDY    56  51  84 N5        29.88R
PHILADELPHIA   CLOUDY    62  50  64 NE8       29.88R
WILDWOOD NJ*   MOCLDY    54  48  82 CALM      29.87R
ATLANTIC CITY  MOCLDY    52  50  93 NW3       29.87R
HENDERSON NC   CLOUDY    57  39  49 NW10G16   29.94R
GREENSBORO     PTCLDY    55  39  54 NW12G24   29.97R
ROCKY MOUNT    CLOUDY    64  48  56 NW12      29.90R
FAYETTEVILLE   MOCLDY    67  47  48 NW10      29.91R
CHARLOTTE      MOCLDY    58  40  51 N8        29.98R
$$

VAZ100-220300-
MARINE

STATION/POSITION TIME  TEMP    WIND        PRES    WAVE   SWELL
                       AIR SEA DIR/SP/G            HT/PER HT/PER
                 (UTC) (F)     (DEG/KT/KT) (MB)    (FT/S) (FT/S)
44066 TX TWR #4  0200   63 66   30/ 10/ 12 1011.4R
CAPE MAY NJ      0200   59 67   80/  2/  2 1010.4S
LEWES DE         0200   63 64  110/  2/  3 1010.4S
15NM E FENWICK I 0200   67 67  190/  6/  8 1010.4R   2/ 6   2/ 6
OCEAN-CITY-INLET 0200          210/  2/  2   N/A
WACHAPREAGUE VA  0200   65 65  220/  3/  5 1010.1S
THOMAS POINT MD  0200   56 64  350/ 15/ 16 1012.7S
GOOSES REEF MD   0200   59     350/ 17/ 21 1011.6S
COVE POINT MD    0200   57     310/  9/ 12 1011.8R
SOLOMONS ISLAND  0200      66                N/A
BISHOPS HEAD MD  0200   57 62  340/  4/  6 1010.9R
PINEY POINT MD   0200          350/ 20/ 23   N/A
POTOMAC MD       0200   59     330/ 16/ 17 1011.1R
CAMBRIDGE MD     0200   59 63  340/  8/ 11 1011.3R
LEWISETTA VA     0200   59 65  340/ 12/ 18 1011.4F
RAPPAHANNOCK LGT 0200          320/ 19/ 22 1011.2R
STINGRAY PT      0200   60     320/ 17/ 21 1011.1F
YORK RVR RNG VA  0200   63     330/ 15/ 17 1010.5R
YORKTOWN VA      0200   62 68  310/ 19/ 21 1010.7R
JAMESTOWN VA     0200   60     360/ 10/ 16   N/A
DOMINION TERM VA 0200   66     290/ 13/ 17 1010.5S
KIPTOPEKE VA     0200      70  230/  8/ 10   N/A
CHES BAY BRIDGE  0200          200/  7/  8   N/A
CHESAPEAKE LGHT  0100   68     140/  6/  7 1011.1R
WILLOUBY STN VA  0200   67     280/ 14/ 17 1009.2R
S CRANEY ISL VA  0200          270/  5/  9 1010.2F
CAPE HENRY BUOY  0200      69                N/A     2/10
1ST LANDING BUOY 0200   67     200/  6/  8 1010.3S
CAPE CHARLES BUO 0200      69                N/A     2/ 9   2/ 9
64NM E OF VA BCH 0200   70 69  250/ 10/ 12 1010.2R   3/ 8   3/ 8
DUCK PIER NC     0200   67 69  230/  5/  5 1009.9F
44100 DUCK FRF   0200      71                N/A     3/10   2/11
44056 DUCK FRF   0200                        N/A     2/11   2/11
OREGON INLET NC  0200   68 69  240/ 13/ 17 1010.8R
HATTERAS NC      0200   69 72  250/  7/ 11 1011.2F
DIAMOND SHLS NC  0200   72     270/ 19/ 23 1010.2F   4/ 6   2/10
CAPE LOOKOUT NC  0100   71     240/  7/  9 1011.1F
$$



USA.gov is the U.S. government's official web portal to all federal, state and local government web resources and services.